User: anonymous   Login
Location: Hains Lake
(37.8540°N, 99.8578°W)
Time: 16:54:02
(UTC+00:00)
Language:

Vanguard 1 - Orbit

View from above orbital plane
View from above orbital plane
View from above satellite
View from above satellite

Ground track
Ground track

The orbit data is extracted from the following two-line orbital elements,

1 00005U 58002B   22265.51753278  .00000190  00000-0  25574-3 0  9991
2 00005  34.2438 200.2790 1846811 114.4341 265.9624 10.85009788295082
Epoch (UTC): 22 September 2022 12:25:14
Eccentricity: 0.1846811
inclination: 34.2438°
perigee height: 649 km
apogee height: 3832 km
right ascension of ascending node: 200.2790°
argument of perigee: 114.4341°
revolutions per day: 10.85009788
mean anomaly at epoch: 265.9624°
orbit number at epoch: 29508

The dashed part of the orbit path shows where the satellite is in the earth's shadow,  

DLR